Location: Broek
(53.2737°N, 5.9967°E)
Time: 21:37:58
(UTC+00:00)

Lacrosse 5 rocket - Pass Details

Date: 10 October 2024
Orbit: 431 x 555 km, 57.0° (Epoch: 10 November)

Event Time Altitude Azimuth Distance (km) Brightness Sun altitude
Rises 18:09:17 0° 195° (SSW) 2,564 4.9 -12.6°
Reaches altitude 10° 18:12:00 10° 176° (S) 1,657 3.7 -13.0°
Enters shadow 18:14:30 18° 133° (SE) 1,240 2.7 -13.4°
